Regional Weather Roundup
Issued by NWS Wilmington, NC

Home | Current Version | Previous Version | Text Only | Print | Product List | Glossary On
Versions: 1 2 3 4 5 6 7 8 9 10 11 12 13 14 15 16 17 18 19 20 21 22 23 24 25 26 27 28 29 30 31 32 33 34 35 36 37 38 39 40 41 42 43 44 45 46 47 48 49 50
000
ASUS42 KILM 282213
RWRILM
RWRILM
REGIONAL HOURLY WEATHER ROUNDUP
NATIONAL WEATHER SERVICE WILMINGTON NC
600 PM EDT FRI AUG 28 2015

NOTE: "FAIR" INDICATES FEW OR NO CLOUDS BELOW 12,000 FEET WITH NO
SIGNIFICANT WEATHER AND/OR OBSTRUCTIONS TO VISIBILITY.

...............WFO WILMINGTON COUNTY WARNING AREA...............

......COASTAL NC AND SC COUNTIES......

CITY           SKY/WX    TMP DP  RH WIND       PRES   REMARKS
WILMINGTON     CLOUDY    81  67  62 E6        30.11R
N MYRTLE BEACH MOSUNNY   83  65  54 NE10      30.09S
MYRTLE BEACH   MOSUNNY   82  64  54 N12       30.11R

......INLAND NC AND SC COUNTIES.......

CITY           SKY/WX    TMP DP  RH WIND       PRES   REMARKS
LUMBERTON      PTSUNNY   83  59  44 E9        30.11S
ELIZABETHTOWN  PTSUNNY   82  63  53 CALM      30.11S
WHITEVILLE     MOSUNNY   81  62  52 NE6       30.10F
FLORENCE       PTSUNNY   85  59  41 E8        30.10S
DARLINGTON     MOSUNNY   82  61  47 E6        30.12F

....................REST OF NORTH CAROLINA......................

.........EASTERN NC.........

CITY           SKY/WX    TMP DP  RH WIND       PRES   REMARKS
CAPE HATTERAS  MOSUNNY   79  66  64 NE10G20   30.12S
JACKSONVILLE   PTSUNNY   82  61  47 NE10      30.12S
MOREHEAD CITY  MOSUNNY   80  67  64 NE14      30.12R
KENANSVILLE      N/A     80  62  53 CALM      30.13S
NEW BERN       MOSUNNY   82  62  50 E13       30.14R
ELIZABETH CITY PTSUNNY   79  62  56 NE9       30.16R

.........CENTRAL NC.........

CITY           SKY/WX    TMP DP  RH WIND       PRES   REMARKS
RALEIGH DURHAM MOSUNNY   83  55  38 NE7       30.13F
ROCKY MOUNT    MOSUNNY   86  53  32 NE7       30.13F
ROANOKE RAPIDS NOT AVBL
FAYETTEVILLE   MOSUNNY   85  58  39 E8        30.11F
HOFFMAN        SUNNY     84  55  36 NE8       30.11S

.........WESTERN NC.........

CITY           SKY/WX    TMP DP  RH WIND       PRES   REMARKS
CHARLOTTE      PTSUNNY   85  52  32 CALM      30.13F
GREENSBORO     MOSUNNY   84  56  38 VRB3      30.14F
HICKORY        NOT AVBL
BOONE          NOT AVBL
ASHEVILLE      NOT AVBL

.....................REST OF SOUTH CAROLINA.....................

.........EASTERN SC.........

CITY           SKY/WX    TMP DP  RH WIND       PRES   REMARKS
CHARLESTON     CLOUDY    80  72  76 E8        30.09R
BEAUFORT MCAS  TSTM      76  73  91 E9        30.09F
HILTON HEAD    PTSUNNY   82  73  74 NE10      30.09R

.........CENTRAL SC.........

CITY           SKY/WX    TMP DP  RH WIND       PRES   REMARKS
COLUMBIA       PTSUNNY   88  56  33 E10       30.09R
ORANGEBURG     CLOUDY    84  64  50 VRB6      30.09S
SUMTER SHAW    PTSUNNY   84  57  38 NE9       30.08S

.........WESTERN SC.........

CITY           SKY/WX    TMP DP  RH WIND       PRES   REMARKS
GREENVILLE     NOT AVBL
ROCK HILL      SUNNY     86  54  33 VRB5      30.13F
ANDERSON       MOSUNNY   83  63  50 SE6       30.12S
CLEMSON        NOT AVBL
GREENWOOD      MOSUNNY   83  62  49 E3        30.13R


...................COASTAL AND OFFSHORE REPORTS..................

................LOCAL PIERS AND NC RESERVE................


STATION/POSITION TIME  SKY/WX   TEMP    WIND        PRES    VSBY
                                AIR SEA DIR/SP/G
                 (UTC)          (F)     (DEG/KT/KT) (MB)    (MI)
JOHNY MRCER PIER NOT AVBL
NC RESRV MASNBRO NOT AVBL
OCEAN CREST PIER NOT AVBL
SPRINGMAID  PIER NOT AVBL


................COASTAL AND OFFSHORE BUOYS................


STATION/POSITION TIME  SKY/WX   TEMP    WIND        PRES    VSBY
                                AIR SEA DIR/SP/G
                 (UTC)          (F)     (DEG/KT/KT) (MB)    (MI)
DIMNDSHOAL 41025 2150            80 84   30/ 17/ 21 1019.5R
WVE H/P(F/S)=  5/ 8 WND WVE H/P(F/S)=  3/ 5 SWL H/P/D(F/S/D)=  3/100/ 8

CAPE LOOKOUT     2200            78      50/ 19/ 21 1019.6R
ONSLOW BAY 41036 NOT AVBL
ONSLOW BAY 41064 2108            80 82   60/ 17/ 23 1019.8F
ONSLOW BAY 41159 2125               82                N/A
WVE H/P(F/S)=  5/ 5 WND WVE H/P(F/S)=  5/ 5 SWL H/P/D(F/S/D)=  2/100/11

5SE WRITBC 41038 2108            81 82   80/ 14/ 19 1019.3F
MASNBO INL 41110 2119               82                N/A
WVE H/P(F/S)=  4/ 5 WND WVE H/P(F/S)=  3/ 5 SWL H/P/D(F/S/D)=  2/110/12

WILM HARBR 41108 2111               83                N/A
WVE H/P(F/S)=  4/ 5 WND WVE H/P(F/S)=  3/ 5

27SE WRITB 41037 2100            78 82   60/ 16/ 17   N/A
FRYING PAN 41013 2150            81 81   60/ 19/ 23 1018.9F
WVE H/P(F/S)=  5/ 6 WND WVE H/P(F/S)=  5/ 6 SWL H/P/D(F/S/D)=  2/140/11

SUNST NRSH 41024 2108            83      50/ 10/ 14 1018.8F
CAPRS NRSH 41029 NOT AVBL
EDISTO     41004 2150            80 84   60/ 19/ 23 1017.4R
WVE H/P(F/S)=  5/ 5 WND WVE H/P(F/S)=  5/ 5 SWL H/P/D(F/S/D)=  2/ 8



..........OFFSHORE BUOYS BEYOND 100 NM OFFSHORE...........
.....IN A TRIANGLE---HAT TO BERMUDA TO BAHAMAS TO HAT.....


STATION/POSITION TIME  SKY/WX   TEMP    WIND        PRES    VSBY
                                AIR SEA DIR/SP/G
                 (UTC)          (F)     (DEG/KT/KT) (MB)    (MI)
150E HAT   41001 2200            79 82   40/ 12/ 14 1019.1S
W BERMUDA  41048 2150            84 84  230/ 10/ 10 1019.0R
WVE H/P(F/S)=  5/11 WND WVE H/P(F/S)=  2/ 4 SWL H/P/D(F/S/D)=  5/ 70/11

ATLANTIC S 41049 2150            85 88   10/  6/ 10 1019.9R
WVE H/P(F/S)=  5/ 8 SWL H/P/D(F/S/D)=  5/100/ 8

E BAHAMAS  41046 2150            85 86  110/ 14/ 17 1017.9R
WVE H/P(F/S)=  9/10 WND WVE H/P(F/S)=  5/ 6 SWL H/P/D(F/S/D)=  8/110/10

NE BAHAMAS 41047 2150            85 86  110/ 12/ 12 1018.2R
WVE H/P(F/S)=  5/11 WND WVE H/P(F/S)=  2/ 5 SWL H/P/D(F/S/D)=  5/110/11

120E CANVRL41010 2120            82 86   20/  4/  6 1017.0R

END


USA.gov is the U.S. government's official web portal to all federal, state and local government web resources and services.